Time,TemperatureF,DewpointF,PressureIn,WindDirection,WindDirectionDegrees,WindSpeedMPH,WindSpeedGustMPH,Humidity,HourlyPrecipIn,Conditions,Clouds,dailyrainin,SoftwareType,DateUTC
2013-06-04 00:00:00,59.0,54.2,29.86,SSE,155,0.0,4.0,84,0.00,,---,0.00,VWS V14.01,2013-06-04 07:00:00,
2013-06-04 00:02:00,59.0,54.2,29.86,SSE,155,0.0,0.0,84,0.00,,---,0.00,VWS V14.01,2013-06-04 07:02:00,
2013-06-04 00:07:00,59.0,54.2,29.86,SSE,164,0.0,6.0,84,0.00,,---,0.00,VWS V14.01,2013-06-04 07:07:00,
2013-06-04 00:12:00,59.0,54.2,29.86,South,171,2.0,7.0,84,0.00,,---,0.00,VWS V14.01,2013-06-04 07:12:00,
2013-06-04 00:15:00,59.0,54.2,29.86,SSE,155,6.0,7.0,84,0.00,,---,0.00,VWS V14.01,2013-06-04 07:15:00,
2013-06-04 00:17:00,59.0,54.2,29.86,SSE,163,4.0,8.0,84,0.00,,---,0.00,VWS V14.01,2013-06-04 07:17:00,
2013-06-04 00:22:00,58.9,54.1,29.86,SW,221,0.0,8.0,84,0.00,,---,0.00,VWS V14.01,2013-06-04 07:22:00,
2013-06-04 00:27:00,59.0,54.2,29.86,SSE,167,2.0,8.0,84,0.00,,---,0.00,VWS V14.01,2013-06-04 07:27:00,
2013-06-04 00:30:00,58.8,54.0,29.86,South,179,2.0,8.0,84,0.00,,---,0.00,VWS V14.01,2013-06-04 07:30:00,
2013-06-04 00:32:00,58.9,54.1,29.86,South,169,2.0,4.0,84,0.00,,---,0.00,VWS V14.01,2013-06-04 07:32:00,
2013-06-04 00:37:00,58.9,54.1,29.86,SSW,207,0.0,4.0,84,0.00,,---,0.00,VWS V14.01,2013-06-04 07:37:00,
2013-06-04 00:42:00,58.7,54.2,29.86,SSW,203,0.0,4.0,85,0.00,,---,0.00,VWS V14.01,2013-06-04 07:42:00,
2013-06-04 00:45:00,58.7,54.2,29.86,South,182,0.0,4.0,85,0.00,,---,0.00,VWS V14.01,2013-06-04 07:45:00,
2013-06-04 00:47:00,58.7,54.2,29.86,South,188,0.0,3.0,85,0.00,,---,0.00,VWS V14.01,2013-06-04 07:47:00,
2013-06-04 00:52:00,58.6,53.8,29.86,South,187,3.0,4.0,84,0.00,,---,0.00,VWS V14.01,2013-06-04 07:52:00,
2013-06-04 00:57:00,58.6,54.1,29.86,South,188,3.0,4.0,85,0.00,,---,0.00,VWS V14.01,2013-06-04 07:57:00,
2013-06-04 01:00:00,58.6,54.1,29.86,SSE,157,0.0,5.0,85,0.00,,---,0.00,VWS V14.01,2013-06-04 08:00:00,
2013-06-04 01:02:00,58.6,54.1,29.86,SSE,159,0.0,0.0,85,0.00,,---,0.00,VWS V14.01,2013-06-04 08:02:00,
2013-06-04 01:07:00,58.5,53.7,29.86,SSE,157,0.0,3.0,84,0.00,,---,0.00,VWS V14.01,2013-06-04 08:07:00,
2013-06-04 01:12:00,58.5,53.7,29.86,SSE,158,0.0,3.0,84,0.00,,---,0.00,VWS V14.01,2013-06-04 08:12:00,
2013-06-04 01:15:00,58.5,54.0,29.86,SSE,157,0.0,3.0,85,0.00,,---,0.00,VWS V14.01,2013-06-04 08:15:00,
2013-06-04 01:17:00,58.5,53.7,29.86,SSE,157,0.0,0.0,84,0.00,,---,0.00,VWS V14.01,2013-06-04 08:17:00,
2013-06-04 01:22:00,58.5,54.0,29.86,SSE,159,0.0,0.0,85,0.00,,---,0.00,VWS V14.01,2013-06-04 08:22:00,
2013-06-04 01:27:00,58.5,54.0,29.86,SSE,159,0.0,3.0,85,0.00,,---,0.00,VWS V14.01,2013-06-04 08:27:00,
2013-06-04 01:30:00,58.5,54.0,29.86,SSE,159,0.0,3.0,85,0.00,,---,0.00,VWS V14.01,2013-06-04 08:30:00,
2013-06-04 01:32:00,58.6,54.1,29.86,SSE,157,0.0,0.0,85,0.00,,---,0.00,VWS V14.01,2013-06-04 08:32:00,
2013-06-04 01:37:00,58.5,54.0,29.86,SSE,159,0.0,0.0,85,0.00,,---,0.00,VWS V14.01,2013-06-04 08:37:00,
2013-06-04 01:42:00,58.5,54.0,29.86,SSE,157,0.0,0.0,85,0.00,,---,0.00,VWS V14.01,2013-06-04 08:42:00,
2013-06-04 01:45:00,58.5,54.0,29.86,SSE,159,0.0,0.0,85,0.00,,---,0.00,VWS V14.01,2013-06-04 08:45:00,
2013-06-04 01:47:00,58.6,54.1,29.86,SSE,158,0.0,2.0,85,0.00,,---,0.00,VWS V14.01,2013-06-04 08:47:00,
2013-06-04 01:52:00,58.6,54.1,29.86,SSE,159,0.0,2.0,85,0.00,,---,0.00,VWS V14.01,2013-06-04 08:52:00,
2013-06-04 01:57:00,58.6,54.1,29.86,South,185,1.0,4.0,85,0.00,,---,0.00,VWS V14.01,2013-06-04 08:57:00,
2013-06-04 02:00:00,58.5,54.0,29.86,South,186,2.0,4.0,85,0.00,,---,0.00,VWS V14.01,2013-06-04 09:00:00,
2013-06-04 02:02:00,58.4,53.9,29.86,South,186,0.0,2.0,85,0.00,,---,0.00,VWS V14.01,2013-06-04 09:02:00,
2013-06-04 02:07:00,58.4,53.9,29.86,South,178,3.0,4.0,85,0.00,,---,0.00,VWS V14.01,2013-06-04 09:07:00,
2013-06-04 02:12:00,58.4,53.9,29.86,South,187,0.0,4.0,85,0.00,,---,0.00,VWS V14.01,2013-06-04 09:12:00,
2013-06-04 02:15:00,58.5,54.0,29.85,SSW,196,1.0,4.0,85,0.00,,---,0.00,VWS V14.01,2013-06-04 09:15:00,
2013-06-04 02:17:00,58.4,53.9,29.86,South,189,1.0,4.0,85,0.00,,---,0.00,VWS V14.01,2013-06-04 09:17:00,
2013-06-04 02:22:00,58.4,53.9,29.86,SW,221,3.0,5.0,85,0.00,,---,0.00,VWS V14.01,2013-06-04 09:22:00,
2013-06-04 02:27:00,58.2,53.7,29.86,SW,221,0.0,5.0,85,0.00,,---,0.00,VWS V14.01,2013-06-04 09:27:00,
2013-06-04 02:30:00,58.2,54.0,29.86,SW,221,0.0,5.0,86,0.00,,---,0.00,VWS V14.01,2013-06-04 09:30:00,
2013-06-04 02:32:00,58.2,54.0,29.86,SW,221,0.0,0.0,86,0.00,,---,0.00,VWS V14.01,2013-06-04 09:32:00,
2013-06-04 02:37:00,58.1,53.9,29.86,South,169,2.0,4.0,86,0.00,,---,0.00,VWS V14.01,2013-06-04 09:37:00,
2013-06-04 02:42:00,58.0,53.8,29.86,South,169,0.0,4.0,86,0.00,,---,0.00,VWS V14.01,2013-06-04 09:42:00,
2013-06-04 02:45:00,58.0,53.8,29.85,SE,135,0.0,4.0,86,0.00,,---,0.00,VWS V14.01,2013-06-04 09:45:00,
2013-06-04 02:47:00,58.0,53.8,29.86,East,82,0.0,3.0,86,0.00,,---,0.00,VWS V14.01,2013-06-04 09:47:00,
2013-06-04 02:52:00,58.1,53.9,29.85,East,81,0.0,3.0,86,0.00,,---,0.00,VWS V14.01,2013-06-04 09:52:00,
2013-06-04 02:57:00,58.2,54.0,29.86,South,169,0.0,6.0,86,0.00,,---,0.00,VWS V14.01,2013-06-04 09:57:00,
2013-06-04 03:00:00,58.1,53.9,29.85,South,170,1.0,6.0,86,0.00,,---,0.00,VWS V14.01,2013-06-04 10:00:00,
2013-06-04 03:02:00,58.1,53.9,29.86,South,169,0.0,1.0,86,0.00,,---,0.00,VWS V14.01,2013-06-04 10:02:00,
2013-06-04 03:07:00,58.2,54.0,29.86,South,169,0.0,1.0,86,0.00,,---,0.00,VWS V14.01,2013-06-04 10:07:00,
2013-06-04 03:12:00,58.2,54.0,29.85,South,169,0.0,1.0,86,0.00,,---,0.00,VWS V14.01,2013-06-04 10:12:00,
2013-06-04 03:15:00,58.2,54.0,29.86,South,169,0.0,1.0,86,0.00,,---,0.00,VWS V14.01,2013-06-04 10:15:00,
2013-06-04 03:17:00,58.2,54.0,29.86,South,170,0.0,3.0,86,0.00,,---,0.00,VWS V14.01,2013-06-04 10:17:00,
2013-06-04 03:22:00,58.2,54.0,29.86,South,169,0.0,3.0,86,0.00,,---,0.00,VWS V14.01,2013-06-04 10:22:00,
2013-06-04 03:27:00,58.2,54.0,29.85,South,170,0.0,3.0,86,0.00,,---,0.00,VWS V14.01,2013-06-04 10:27:00,
2013-06-04 03:30:00,58.3,54.1,29.85,South,169,0.0,3.0,86,0.00,,---,0.00,VWS V14.01,2013-06-04 10:30:00,
2013-06-04 03:32:00,58.3,54.1,29.85,South,169,0.0,0.0,86,0.00,,---,0.00,VWS V14.01,2013-06-04 10:32:00,
2013-06-04 03:37:00,58.4,54.2,29.85,South,170,0.0,0.0,86,0.00,,---,0.00,VWS V14.01,2013-06-04 10:37:00,
2013-06-04 03:43:00,58.4,53.9,29.85,South,177,0.0,3.0,85,0.00,,---,0.00,VWS V14.01,2013-06-04 10:43:00,
2013-06-04 03:45:00,58.3,53.8,29.85,South,176,0.0,3.0,85,0.00,,---,0.00,VWS V14.01,2013-06-04 10:45:00,
2013-06-04 03:48:00,58.3,53.8,29.85,South,178,0.0,0.0,85,0.00,,---,0.00,VWS V14.01,2013-06-04 10:48:00,
2013-06-04 03:53:00,58.4,53.9,29.85,South,178,0.0,3.0,85,0.00,,---,0.00,VWS V14.01,2013-06-04 10:53:00,
2013-06-04 03:57:00,58.4,53.9,29.85,SSW,200,0.0,4.0,85,0.00,,---,0.00,VWS V14.01,2013-06-04 10:57:00,
2013-06-04 04:00:00,58.4,53.9,29.86,SSW,200,0.0,4.0,85,0.00,,---,0.00,VWS V14.01,2013-06-04 11:00:00,
2013-06-04 04:02:00,58.4,53.9,29.86,SSW,200,0.0,3.0,85,0.00,,---,0.00,VWS V14.01,2013-06-04 11:02:00,
2013-06-04 04:07:00,58.4,54.2,29.86,SSW,201,2.0,4.0,86,0.00,,---,0.00,VWS V14.01,2013-06-04 11:07:00,
2013-06-04 04:13:00,58.4,54.2,29.86,SSW,200,0.0,4.0,86,0.00,,---,0.00,VWS V14.01,2013-06-04 11:13:00,
2013-06-04 04:15:00,58.4,54.2,29.86,SSW,201,0.0,4.0,86,0.00,,---,0.00,VWS V14.01,2013-06-04 11:15:00,
2013-06-04 04:18:00,58.4,54.2,29.86,SSW,201,0.0,2.0,86,0.00,,---,0.00,VWS V14.01,2013-06-04 11:18:00,
2013-06-04 04:23:00,58.4,54.2,29.86,SSW,200,1.0,2.0,86,0.00,,---,0.00,VWS V14.01,2013-06-04 11:23:00,
2013-06-04 04:28:00,58.3,54.1,29.86,SSW,200,0.0,2.0,86,0.00,,---,0.00,VWS V14.01,2013-06-04 11:28:00,
2013-06-04 04:30:00,58.3,54.1,29.86,SSW,200,0.0,2.0,86,0.00,,---,0.00,VWS V14.01,2013-06-04 11:30:00,
2013-06-04 04:33:00,58.3,54.1,29.86,SSW,201,0.0,0.0,86,0.00,,---,0.00,VWS V14.01,2013-06-04 11:33:00,
2013-06-04 04:38:00,58.2,54.0,29.86,SSW,200,0.0,2.0,86,0.00,,---,0.00,VWS V14.01,2013-06-04 11:38:00,
2013-06-04 04:43:00,58.2,54.0,29.86,SSW,200,0.0,2.0,86,0.00,,---,0.00,VWS V14.01,2013-06-04 11:43:00,
2013-06-04 04:45:00,58.1,53.9,29.86,SSW,200,0.0,2.0,86,0.00,,---,0.00,VWS V14.01,2013-06-04 11:45:00,
2013-06-04 04:48:00,58.1,53.9,29.86,SSW,200,0.0,0.0,86,0.00,,---,0.00,VWS V14.01,2013-06-04 11:48:00,
2013-06-04 04:53:00,58.1,53.9,29.87,SSW,200,2.0,2.0,86,0.00,,---,0.00,VWS V14.01,2013-06-04 11:53:00,
2013-06-04 04:58:00,58.1,54.3,29.87,SSW,202,0.0,2.0,87,0.00,,---,0.00,VWS V14.01,2013-06-04 11:58:00,
2013-06-04 05:00:00,58.1,54.3,29.87,SSW,201,0.0,2.0,87,0.00,,---,0.00,VWS V14.01,2013-06-04 12:00:00,
2013-06-04 05:03:00,58.1,54.3,29.87,SSW,201,0.0,0.0,87,0.00,,---,0.00,VWS V14.01,2013-06-04 12:03:00,
2013-06-04 05:08:00,58.1,54.3,29.87,SSW,200,2.0,2.0,87,0.00,,---,0.00,VWS V14.01,2013-06-04 12:08:00,
2013-06-04 05:13:00,58.0,54.2,29.87,SSW,201,0.0,3.0,87,0.00,,---,0.00,VWS V14.01,2013-06-04 12:13:00,
2013-06-04 05:15:00,58.0,54.2,29.87,SSW,201,0.0,3.0,87,0.00,,---,0.00,VWS V14.01,2013-06-04 12:15:00,
2013-06-04 05:18:00,58.0,54.2,29.87,SSW,200,0.0,0.0,87,0.00,,---,0.00,VWS V14.01,2013-06-04 12:18:00,
2013-06-04 05:23:00,58.0,54.2,29.87,SSW,201,0.0,0.0,87,0.00,,---,0.00,VWS V14.01,2013-06-04 12:23:00,
2013-06-04 05:28:00,57.9,54.1,29.87,SSW,200,0.0,0.0,87,0.00,,---,0.00,VWS V14.01,2013-06-04 12:28:00,
2013-06-04 05:30:00,57.9,54.1,29.87,SSW,201,0.0,0.0,87,0.00,,---,0.00,VWS V14.01,2013-06-04 12:30:00,
2013-06-04 05:32:00,57.9,54.1,29.88,SSW,201,0.0,0.0,87,0.00,,---,0.00,VWS V14.01,2013-06-04 12:32:00,
2013-06-04 05:37:00,57.9,54.1,29.88,SSW,201,0.0,0.0,87,0.00,,---,0.00,VWS V14.01,2013-06-04 12:37:00,
2013-06-04 05:42:00,58.0,54.2,29.88,SSW,201,2.0,3.0,87,0.00,,---,0.00,VWS V14.01,2013-06-04 12:42:00,
2013-06-04 05:45:00,58.0,54.2,29.88,SSW,200,0.0,3.0,87,0.00,,---,0.00,VWS V14.01,2013-06-04 12:45:00,
2013-06-04 05:47:00,58.0,54.2,29.88,SSW,207,0.0,0.0,87,0.00,,---,0.00,VWS V14.01,2013-06-04 12:47:00,
2013-06-04 05:52:00,57.9,54.1,29.88,SSW,208,0.0,2.0,87,0.00,,---,0.00,VWS V14.01,2013-06-04 12:52:00,
2013-06-04 05:57:00,57.9,54.1,29.88,SSW,208,0.0,2.0,87,0.00,,---,0.00,VWS V14.01,2013-06-04 12:57:00,
2013-06-04 06:02:00,57.9,54.1,29.89,SSW,205,0.0,0.0,87,0.00,,---,0.00,VWS V14.01,2013-06-04 13:02:00,
2013-06-04 06:07:00,57.8,54.0,29.89,SSW,205,0.0,0.0,87,0.00,,---,0.00,VWS V14.01,2013-06-04 13:07:00,
2013-06-04 06:13:00,57.8,53.7,29.89,SE,144,2.0,3.0,86,0.00,,---,0.00,VWS V14.01,2013-06-04 13:13:00,
2013-06-04 06:15:00,57.8,53.7,29.89,ESE,104,0.0,4.0,86,0.00,,---,0.00,VWS V14.01,2013-06-04 13:15:00,
2013-06-04 06:17:00,57.8,53.7,29.89,ESE,103,1.0,3.0,86,0.00,,---,0.00,VWS V14.01,2013-06-04 13:17:00,
2013-06-04 06:23:00,57.8,53.3,29.89,ESE,103,1.0,3.0,85,0.00,,---,0.00,VWS V14.01,2013-06-04 13:23:00,
2013-06-04 06:28:00,57.9,53.4,29.89,East,100,0.0,3.0,85,0.00,,---,0.00,VWS V14.01,2013-06-04 13:28:00,
2013-06-04 06:30:00,57.9,53.4,29.89,ESE,104,0.0,3.0,85,0.00,,---,0.00,VWS V14.01,2013-06-04 13:30:00,
2013-06-04 06:33:00,58.0,53.5,29.89,ESE,103,0.0,0.0,85,0.00,,---,0.00,VWS V14.01,2013-06-04 13:33:00,
2013-06-04 06:38:00,58.1,53.3,29.89,ESE,105,0.0,2.0,84,0.00,,---,0.00,VWS V14.01,2013-06-04 13:38:00,
2013-06-04 06:43:00,58.2,53.4,29.89,ESE,104,0.0,2.0,84,0.00,,---,0.00,VWS V14.01,2013-06-04 13:43:00,
2013-06-04 06:45:00,58.2,53.4,29.89,ESE,111,0.0,3.0,84,0.00,,---,0.00,VWS V14.01,2013-06-04 13:45:00,
2013-06-04 06:48:00,58.3,53.5,29.90,ESE,111,0.0,0.0,84,0.00,,---,0.00,VWS V14.01,2013-06-04 13:48:00,
2013-06-04 06:53:00,58.4,53.6,29.90,ESE,111,0.0,0.0,84,0.00,,---,0.00,VWS V14.01,2013-06-04 13:53:00,
2013-06-04 06:58:00,58.5,53.7,29.90,ESE,111,0.0,0.0,84,0.00,,---,0.00,VWS V14.01,2013-06-04 13:58:00,
2013-06-04 07:00:00,58.5,53.7,29.90,ESE,110,0.0,0.0,84,0.00,,---,0.00,VWS V14.01,2013-06-04 14:00:00,
2013-06-04 07:03:00,58.5,53.7,29.90,ESE,111,0.0,0.0,84,0.00,,---,0.00,VWS V14.01,2013-06-04 14:03:00,
2013-06-04 07:08:00,58.6,53.5,29.90,East,88,0.0,4.0,83,0.00,,---,0.00,VWS V14.01,2013-06-04 14:08:00,
2013-06-04 07:13:00,58.7,53.6,29.90,ESE,105,4.0,4.0,83,0.00,,---,0.00,VWS V14.01,2013-06-04 14:13:00,
2013-06-04 07:15:00,58.8,53.7,29.90,ESE,104,0.0,4.0,83,0.00,,---,0.00,VWS V14.01,2013-06-04 14:15:00,
2013-06-04 07:18:00,58.8,53.7,29.90,ESE,104,0.0,0.0,83,0.00,,---,0.00,VWS V14.01,2013-06-04 14:18:00,
2013-06-04 07:23:00,59.0,53.8,29.90,ESE,103,0.0,2.0,83,0.00,,---,0.00,VWS V14.01,2013-06-04 14:23:00,
2013-06-04 07:28:00,59.0,53.8,29.91,ESE,103,0.0,2.0,83,0.00,,---,0.00,VWS V14.01,2013-06-04 14:28:00,
2013-06-04 07:30:00,59.0,53.8,29.91,ESE,103,0.0,2.0,83,0.00,,---,0.00,VWS V14.01,2013-06-04 14:30:00,
2013-06-04 07:33:00,59.0,53.5,29.91,ESE,104,0.0,0.0,82,0.00,,---,0.00,VWS V14.01,2013-06-04 14:33:00,
2013-06-04 07:38:00,59.0,53.5,29.91,ESE,104,0.0,0.0,82,0.00,,---,0.00,VWS V14.01,2013-06-04 14:38:00,
2013-06-04 07:43:00,59.3,53.8,29.91,ESE,104,0.0,3.0,82,0.00,,---,0.00,VWS V14.01,2013-06-04 14:43:00,
2013-06-04 07:45:00,59.4,53.9,29.91,ESE,104,0.0,3.0,82,0.00,,---,0.00,VWS V14.01,2013-06-04 14:45:00,
2013-06-04 07:48:00,59.5,53.7,29.91,ESE,103,0.0,0.0,81,0.00,,---,0.00,VWS V14.01,2013-06-04 14:48:00,
2013-06-04 07:53:00,59.6,54.1,29.91,ESE,104,0.0,0.0,82,0.00,,---,0.00,VWS V14.01,2013-06-04 14:53:00,
2013-06-04 07:58:00,59.6,53.8,29.91,ESE,103,0.0,0.0,81,0.00,,---,0.00,VWS V14.01,2013-06-04 14:58:00,
2013-06-04 08:00:00,59.5,53.7,29.91,ESE,103,0.0,0.0,81,0.00,,---,0.00,VWS V14.01,2013-06-04 15:00:00,
2013-06-04 08:03:00,59.5,53.7,29.91,ESE,104,0.0,0.0,81,0.00,,---,0.00,VWS V14.01,2013-06-04 15:03:00,
2013-06-04 08:08:00,59.5,53.7,29.91,ESE,104,0.0,1.0,81,0.00,,---,0.00,VWS V14.01,2013-06-04 15:08:00,
2013-06-04 08:13:00,59.5,53.7,29.91,ESE,103,0.0,1.0,81,0.00,,---,0.00,VWS V14.01,2013-06-04 15:13:00,
2013-06-04 08:15:00,59.5,54.0,29.91,ESE,103,0.0,1.0,82,0.00,,---,0.00,VWS V14.01,2013-06-04 15:15:00,
2013-06-04 08:18:00,59.7,54.2,29.91,ESE,104,0.0,0.0,82,0.00,,---,0.00,VWS V14.01,2013-06-04 15:18:00,
2013-06-04 08:23:00,59.8,54.3,29.91,ESE,103,0.0,0.0,82,0.00,,---,0.00,VWS V14.01,2013-06-04 15:23:00,
2013-06-04 08:28:00,60.1,54.6,29.91,ESE,103,0.0,0.0,82,0.00,,---,0.00,VWS V14.01,2013-06-04 15:28:00,
2013-06-04 08:30:00,60.3,54.8,29.92,ESE,103,0.0,0.0,82,0.00,,---,0.00,VWS V14.01,2013-06-04 15:30:00,
2013-06-04 08:33:00,60.4,54.5,29.91,ESE,104,0.0,0.0,81,0.00,,---,0.00,VWS V14.01,2013-06-04 15:33:00,
2013-06-04 08:38:00,60.7,54.8,29.92,ESE,103,0.0,0.0,81,0.00,,---,0.00,VWS V14.01,2013-06-04 15:38:00,
2013-06-04 08:43:00,61.0,55.1,29.92,ESE,104,0.0,2.0,81,0.00,,---,0.00,VWS V14.01,2013-06-04 15:43:00,
2013-06-04 08:45:00,61.1,55.2,29.92,ESE,105,0.0,2.0,81,0.00,,---,0.00,VWS V14.01,2013-06-04 15:45:00,
2013-06-04 08:48:00,61.2,55.3,29.92,West,268,0.0,4.0,81,0.00,,---,0.00,VWS V14.01,2013-06-04 15:48:00,
2013-06-04 08:53:00,61.3,55.4,29.92,West,267,0.0,4.0,81,0.00,,---,0.00,VWS V14.01,2013-06-04 15:53:00,
2013-06-04 08:58:00,61.4,55.5,29.92,SW,227,0.0,4.0,81,0.00,,---,0.00,VWS V14.01,2013-06-04 15:58:00,
2013-06-04 09:00:00,61.4,55.5,29.92,WSW,239,0.0,4.0,81,0.00,,---,0.00,VWS V14.01,2013-06-04 16:00:00,
2013-06-04 09:03:00,61.4,55.5,29.92,West,275,0.0,3.0,81,0.00,,---,0.00,VWS V14.01,2013-06-04 16:03:00,
2013-06-04 09:08:00,61.4,55.5,29.92,West,262,0.0,3.0,81,0.00,,---,0.00,VWS V14.01,2013-06-04 16:08:00,
2013-06-04 09:13:00,61.4,55.5,29.92,WSW,241,0.0,4.0,81,0.00,,---,0.00,VWS V14.01,2013-06-04 16:13:00,
2013-06-04 09:15:00,61.4,55.5,29.92,SW,231,2.0,4.0,81,0.00,,---,0.00,VWS V14.01,2013-06-04 16:15:00,
2013-06-04 09:18:00,61.4,55.5,29.92,SW,231,2.0,3.0,81,0.00,,---,0.00,VWS V14.01,2013-06-04 16:18:00,
2013-06-04 09:23:00,61.3,55.4,29.92,West,263,0.0,4.0,81,0.00,,---,0.00,VWS V14.01,2013-06-04 16:23:00,
2013-06-04 09:28:00,61.3,55.4,29.92,WSW,240,0.0,4.0,81,0.00,,---,0.00,VWS V14.01,2013-06-04 16:28:00,
2013-06-04 09:30:00,61.3,55.4,29.92,WSW,241,0.0,4.0,81,0.00,,---,0.00,VWS V14.01,2013-06-04 16:30:00,
2013-06-04 09:33:00,61.3,55.4,29.92,WSW,251,3.0,3.0,81,0.00,,---,0.00,VWS V14.01,2013-06-04 16:33:00,
2013-06-04 09:38:00,61.3,55.4,29.92,SW,229,0.0,4.0,81,0.00,,---,0.00,VWS V14.01,2013-06-04 16:38:00,
2013-06-04 09:43:00,61.5,55.6,29.92,SW,229,0.0,4.0,81,0.00,,---,0.00,VWS V14.01,2013-06-04 16:43:00,
2013-06-04 09:45:00,61.8,55.9,29.92,SW,229,0.0,4.0,81,0.00,,---,0.00,VWS V14.01,2013-06-04 16:45:00,
2013-06-04 09:48:00,61.9,56.0,29.92,SW,229,0.0,3.0,81,0.00,,---,0.00,VWS V14.01,2013-06-04 16:48:00,
2013-06-04 09:53:00,62.2,55.6,29.92,SSW,205,1.0,4.0,79,0.00,,---,0.00,VWS V14.01,2013-06-04 16:53:00,
2013-06-04 09:58:00,62.6,56.3,29.92,SSW,205,0.0,4.0,80,0.00,,---,0.00,VWS V14.01,2013-06-04 16:58:00,
2013-06-04 10:00:00,62.7,56.1,29.92,SSW,205,0.0,4.0,79,0.00,,---,0.00,VWS V14.01,2013-06-04 17:00:00,
2013-06-04 10:03:00,63.1,56.5,29.92,SSW,205,0.0,0.0,79,0.00,,---,0.00,VWS V14.01,2013-06-04 17:03:00,
2013-06-04 10:08:00,63.7,57.1,29.92,WSW,242,3.0,4.0,79,0.00,,---,0.00,VWS V14.01,2013-06-04 17:08:00,
2013-06-04 10:13:00,64.5,56.4,29.92,WSW,255,0.0,5.0,75,0.00,,---,0.00,VWS V14.01,2013-06-04 17:13:00,
2013-06-04 10:15:00,64.9,57.9,29.92,WSW,249,0.0,5.0,78,0.00,,---,0.00,VWS V14.01,2013-06-04 17:15:00,
2013-06-04 10:18:00,65.6,58.6,29.92,WSW,256,0.0,5.0,78,0.00,,---,0.00,VWS V14.01,2013-06-04 17:18:00,
2013-06-04 10:23:00,66.6,58.1,29.92,SSW,208,2.0,6.0,74,0.00,,---,0.00,VWS V14.01,2013-06-04 17:23:00,
2013-06-04 10:28:00,66.9,57.2,29.91,SW,233,3.0,6.0,71,0.00,,---,0.00,VWS V14.01,2013-06-04 17:28:00,
2013-06-04 10:30:00,66.8,57.9,29.91,SW,226,4.0,8.0,73,0.00,,---,0.00,VWS V14.01,2013-06-04 17:30:00,
2013-06-04 10:33:00,66.7,57.4,29.92,West,261,2.0,5.0,72,0.00,,---,0.00,VWS V14.01,2013-06-04 17:33:00,
2013-06-04 10:38:00,66.7,57.8,29.92,SW,224,6.0,6.0,73,0.00,,---,0.00,VWS V14.01,2013-06-04 17:38:00,
2013-06-04 10:43:00,66.7,57.8,29.92,SW,221,5.0,6.0,73,0.00,,---,0.00,VWS V14.01,2013-06-04 17:43:00,
2013-06-04 10:45:00,66.7,57.0,29.92,WSW,238,3.0,6.0,71,0.00,,---,0.00,VWS V14.01,2013-06-04 17:45:00,
2013-06-04 10:48:00,66.6,57.3,29.92,SW,234,4.0,6.0,72,0.00,,---,0.00,VWS V14.01,2013-06-04 17:48:00,
2013-06-04 10:53:00,66.5,58.0,29.92,WSW,246,3.0,7.0,74,0.00,,---,0.00,VWS V14.01,2013-06-04 17:53:00,
2013-06-04 10:58:00,66.4,57.5,29.92,NW,305,0.0,7.0,73,0.00,,---,0.00,VWS V14.01,2013-06-04 17:58:00,
2013-06-04 11:00:00,66.3,57.0,29.92,West,264,0.0,7.0,72,0.00,,---,0.00,VWS V14.01,2013-06-04 18:00:00,
2013-06-04 11:03:00,66.4,57.9,29.92,SW,225,4.0,6.0,74,0.00,,---,0.00,VWS V14.01,2013-06-04 18:03:00,
2013-06-04 11:08:00,66.5,58.0,29.92,West,259,0.0,6.0,74,0.00,,---,0.00,VWS V14.01,2013-06-04 18:08:00,
2013-06-04 11:13:00,67.3,58.4,29.92,SSW,194,4.0,7.0,73,0.00,,---,0.00,VWS V14.01,2013-06-04 18:13:00,
2013-06-04 11:15:00,67.8,58.8,29.92,SW,223,3.0,7.0,73,0.00,,---,0.00,VWS V14.01,2013-06-04 18:15:00,
2013-06-04 11:18:00,68.3,58.5,29.92,SW,218,0.0,8.0,71,0.00,,---,0.00,VWS V14.01,2013-06-04 18:18:00,
2013-06-04 11:23:00,68.8,59.4,29.92,WSW,250,3.0,9.0,72,0.00,,---,0.00,VWS V14.01,2013-06-04 18:23:00,
2013-06-04 11:28:00,69.0,58.8,29.91,WSW,252,4.0,9.0,70,0.00,,---,0.00,VWS V14.01,2013-06-04 18:28:00,
2013-06-04 11:30:00,68.9,57.5,29.91,NE,56,1.0,9.0,67,0.00,,---,0.00,VWS V14.01,2013-06-04 18:30:00,
2013-06-04 11:33:00,69.0,58.8,29.91,NE,54,0.0,2.0,70,0.00,,---,0.00,VWS V14.01,2013-06-04 18:33:00,
2013-06-04 11:38:00,69.8,60.4,29.91,WSW,238,6.0,7.0,72,0.00,,---,0.00,VWS V14.01,2013-06-04 18:38:00,
2013-06-04 11:43:00,70.4,59.3,29.91,SSW,208,0.0,7.0,68,0.00,,---,0.00,VWS V14.01,2013-06-04 18:43:00,
2013-06-04 11:45:00,70.5,59.0,29.91,SSW,211,2.0,7.0,67,0.00,,---,0.00,VWS V14.01,2013-06-04 18:45:00,
2013-06-04 11:48:00,70.7,58.8,29.91,SW,230,2.0,5.0,66,0.00,,---,0.00,VWS V14.01,2013-06-04 18:48:00,
2013-06-04 11:53:00,71.0,59.5,29.91,SSE,168,3.0,6.0,67,0.00,,---,0.00,VWS V14.01,2013-06-04 18:53:00,
2013-06-04 11:58:00,71.3,58.9,29.91,SSW,192,0.0,7.0,65,0.00,,---,0.00,VWS V14.01,2013-06-04 18:58:00,
2013-06-04 12:00:00,71.4,59.9,29.91,WSW,237,4.0,7.0,67,0.00,,---,0.00,VWS V14.01,2013-06-04 19:00:00,
2013-06-04 12:03:00,71.6,59.7,29.91,SW,233,5.0,9.0,66,0.00,,---,0.00,VWS V14.01,2013-06-04 19:03:00,
2013-06-04 12:08:00,71.5,59.6,29.91,SW,214,5.0,12.0,66,0.00,,---,0.00,VWS V14.01,2013-06-04 19:08:00,
2013-06-04 12:13:00,71.3,59.8,29.91,SSW,213,5.0,12.0,67,0.00,,---,0.00,VWS V14.01,2013-06-04 19:13:00,
2013-06-04 12:15:00,71.3,59.4,29.91,SW,226,3.0,12.0,66,0.00,,---,0.00,VWS V14.01,2013-06-04 19:15:00,
2013-06-04 12:18:00,71.5,60.8,29.91,South,190,6.0,6.0,69,0.00,,---,0.00,VWS V14.01,2013-06-04 19:18:00,
2013-06-04 12:24:00,72.0,60.9,29.91,WSW,252,3.0,7.0,68,0.00,,---,0.00,VWS V14.01,2013-06-04 19:24:00,
2013-06-04 12:29:00,72.5,60.1,29.91,West,273,2.0,7.0,65,0.00,,---,0.00,VWS V14.01,2013-06-04 19:29:00,
2013-06-04 12:30:00,72.4,58.2,29.91,WNW,296,4.0,7.0,61,0.00,,---,0.00,VWS V14.01,2013-06-04 19:30:00,
2013-06-04 12:34:00,72.4,58.2,29.91,North,5,2.0,5.0,61,0.00,,---,0.00,VWS V14.01,2013-06-04 19:34:00,
2013-06-04 12:39:00,72.1,58.4,29.91,WSW,257,5.0,5.0,62,0.00,,---,0.00,VWS V14.01,2013-06-04 19:39:00,
2013-06-04 12:44:00,71.8,59.0,29.91,WSW,240,5.0,9.0,64,0.00,,---,0.00,VWS V14.01,2013-06-04 19:44:00,
2013-06-04 12:45:00,71.9,58.2,29.91,West,276,3.0,9.0,62,0.00,,---,0.00,VWS V14.01,2013-06-04 19:45:00,
2013-06-04 12:49:00,72.1,60.5,29.91,West,260,2.0,6.0,67,0.00,,---,0.00,VWS V14.01,2013-06-04 19:49:00,
2013-06-04 12:54:00,72.8,59.0,29.91,WSW,249,1.0,6.0,62,0.00,,---,0.00,VWS V14.01,2013-06-04 19:54:00,
2013-06-04 12:58:00,73.8,60.4,29.91,SW,221,0.0,6.0,63,0.00,,---,0.00,VWS V14.01,2013-06-04 19:58:00,
2013-06-04 13:00:00,74.0,59.7,29.91,SSW,212,5.0,6.0,61,0.00,,---,0.00,VWS V14.01,2013-06-04 20:00:00,
2013-06-04 13:03:00,74.0,59.2,29.91,SW,227,3.0,9.0,60,0.00,,---,0.00,VWS V14.01,2013-06-04 20:03:00,
2013-06-04 13:08:00,74.1,59.8,29.90,SW,215,5.0,9.0,61,0.00,,---,0.00,VWS V14.01,2013-06-04 20:08:00,
2013-06-04 13:13:00,74.5,58.8,29.90,WSW,248,5.0,9.0,58,0.00,,---,0.00,VWS V14.01,2013-06-04 20:13:00,
2013-06-04 13:15:00,74.4,61.0,29.90,SW,236,7.0,9.0,63,0.00,,---,0.00,VWS V14.01,2013-06-04 20:15:00,
2013-06-04 13:18:00,74.5,60.2,29.90,WSW,254,0.0,8.0,61,0.00,,---,0.00,VWS V14.01,2013-06-04 20:18:00,
2013-06-04 13:24:00,74.9,60.6,29.90,WSW,256,4.0,8.0,61,0.00,,---,0.00,VWS V14.01,2013-06-04 20:24:00,
2013-06-04 13:29:00,74.9,59.1,29.90,WNW,301,5.0,9.0,58,0.00,,---,0.00,VWS V14.01,2013-06-04 20:29:00,
2013-06-04 13:30:00,74.5,58.3,29.90,West,261,3.0,9.0,57,0.00,,---,0.00,VWS V14.01,2013-06-04 20:30:00,
2013-06-04 13:34:00,74.4,59.6,29.90,West,263,5.0,9.0,60,0.00,,---,0.00,VWS V14.01,2013-06-04 20:34:00,
2013-06-04 13:39:00,73.9,59.6,29.90,WSW,244,5.0,9.0,61,0.00,,---,0.00,VWS V14.01,2013-06-04 20:39:00,
2013-06-04 13:44:00,74.0,59.7,29.90,WSW,257,3.0,9.0,61,0.00,,---,0.00,VWS V14.01,2013-06-04 20:44:00,
2013-06-04 13:45:00,74.2,60.4,29.89,WSW,241,10.0,10.0,62,0.00,,---,0.00,VWS V14.01,2013-06-04 20:45:00,
2013-06-04 13:49:00,74.3,60.0,29.89,SW,230,11.0,13.0,61,0.00,,---,0.00,VWS V14.01,2013-06-04 20:49:00,
2013-06-04 13:54:00,74.4,60.5,29.89,SW,219,4.0,13.0,62,0.00,,---,0.00,VWS V14.01,2013-06-04 20:54:00,
2013-06-04 13:59:00,74.8,60.9,29.89,WSW,239,6.0,13.0,62,0.00,,---,0.00,VWS V14.01,2013-06-04 20:59:00,
2013-06-04 14:00:00,74.8,60.0,29.89,West,263,9.0,13.0,60,0.00,,---,0.00,VWS V14.01,2013-06-04 21:00:00,
2013-06-04 14:04:00,74.8,59.0,29.89,West,279,4.0,10.0,58,0.00,,---,0.00,VWS V14.01,2013-06-04 21:04:00,
2013-06-04 14:09:00,74.6,60.7,29.89,SW,231,5.0,10.0,62,0.00,,---,0.00,VWS V14.01,2013-06-04 21:09:00,
2013-06-04 14:14:00,74.6,59.8,29.89,SW,226,9.0,12.0,60,0.00,,---,0.00,VWS V14.01,2013-06-04 21:14:00,
2013-06-04 14:15:00,74.6,59.8,29.89,WSW,247,7.0,12.0,60,0.00,,---,0.00,VWS V14.01,2013-06-04 21:15:00,
2013-06-04 14:19:00,74.6,59.3,29.89,WSW,249,5.0,10.0,59,0.00,,---,0.00,VWS V14.01,2013-06-04 21:19:00,
2013-06-04 14:24:00,74.6,60.3,29.89,SSW,196,4.0,10.0,61,0.00,,---,0.00,VWS V14.01,2013-06-04 21:24:00,
2013-06-04 14:29:00,74.8,58.6,29.89,WSW,246,3.0,10.0,57,0.00,,---,0.00,VWS V14.01,2013-06-04 21:29:00,
2013-06-04 14:30:00,74.8,60.5,29.89,West,265,5.0,10.0,61,0.00,,---,0.00,VWS V14.01,2013-06-04 21:30:00,
2013-06-04 14:34:00,74.6,59.3,29.89,West,259,7.0,10.0,59,0.00,,---,0.00,VWS V14.01,2013-06-04 21:34:00,
2013-06-04 14:38:00,74.4,59.2,29.89,SW,236,10.0,10.0,59,0.00,,---,0.00,VWS V14.01,2013-06-04 21:38:00,
2013-06-04 14:44:00,74.3,60.0,29.88,SW,229,4.0,10.0,61,0.00,,---,0.00,VWS V14.01,2013-06-04 21:44:00,
2013-06-04 14:45:00,74.3,60.0,29.89,SW,233,5.0,10.0,61,0.00,,---,0.00,VWS V14.01,2013-06-04 21:45:00,
2013-06-04 14:48:00,74.4,60.1,29.89,SW,217,1.0,10.0,61,0.00,,---,0.00,VWS V14.01,2013-06-04 21:48:00,
2013-06-04 14:54:00,74.6,59.3,29.89,WSW,242,6.0,13.0,59,0.00,,---,0.00,VWS V14.01,2013-06-04 21:54:00,
2013-06-04 14:59:00,74.6,60.7,29.88,SW,229,9.0,13.0,62,0.00,,---,0.00,VWS V14.01,2013-06-04 21:59:00,
2013-06-04 15:00:00,74.4,59.2,29.89,SW,215,5.0,13.0,59,0.00,,---,0.00,VWS V14.01,2013-06-04 22:00:00,
2013-06-04 15:04:00,74.4,59.6,29.88,SW,236,0.0,7.0,60,0.00,,---,0.00,VWS V14.01,2013-06-04 22:04:00,
2013-06-04 15:09:00,74.9,59.1,29.88,SW,217,7.0,10.0,58,0.00,,---,0.00,VWS V14.01,2013-06-04 22:09:00,
2013-06-04 15:14:00,75.1,59.3,29.89,WSW,253,5.0,10.0,58,0.00,,---,0.00,VWS V14.01,2013-06-04 22:14:00,
2013-06-04 15:15:00,75.1,59.8,29.89,WSW,250,4.0,10.0,59,0.00,,---,0.00,VWS V14.01,2013-06-04 22:15:00,
2013-06-04 15:19:00,75.0,59.7,29.88,SW,233,3.0,6.0,59,0.00,,---,0.00,VWS V14.01,2013-06-04 22:19:00,
2013-06-04 15:24:00,74.9,59.6,29.88,WSW,254,3.0,9.0,59,0.00,,---,0.00,VWS V14.01,2013-06-04 22:24:00,
2013-06-04 15:29:00,75.0,60.2,29.88,West,260,3.0,9.0,60,0.00,,---,0.00,VWS V14.01,2013-06-04 22:29:00,
2013-06-04 15:30:00,75.1,59.8,29.88,West,259,9.0,9.0,59,0.00,,---,0.00,VWS V14.01,2013-06-04 22:30:00,
2013-06-04 15:34:00,75.4,59.6,29.88,WSW,252,0.0,9.0,58,0.00,,---,0.00,VWS V14.01,2013-06-04 22:34:00,
2013-06-04 15:39:00,75.7,59.9,29.88,WSW,244,5.0,9.0,58,0.00,,---,0.00,VWS V14.01,2013-06-04 22:39:00,
2013-06-04 15:44:00,75.6,59.3,29.88,WSW,245,4.0,10.0,57,0.00,,---,0.00,VWS V14.01,2013-06-04 22:44:00,
2013-06-04 15:45:00,75.5,60.2,29.88,WSW,257,4.0,10.0,59,0.00,,---,0.00,VWS V14.01,2013-06-04 22:45:00,
2013-06-04 15:49:00,75.4,60.6,29.88,WSW,238,8.0,9.0,60,0.00,,---,0.00,VWS V14.01,2013-06-04 22:49:00,
2013-06-04 15:54:00,75.0,59.7,29.88,SW,231,4.0,9.0,59,0.00,,---,0.00,VWS V14.01,2013-06-04 22:54:00,
2013-06-04 15:59:00,74.7,59.9,29.88,West,269,5.0,10.0,60,0.00,,---,0.00,VWS V14.01,2013-06-04 22:59:00,
2013-06-04 16:00:00,74.6,59.3,29.88,West,274,6.0,10.0,59,0.00,,---,0.00,VWS V14.01,2013-06-04 23:00:00,
2013-06-04 16:04:00,74.4,59.2,29.88,West,274,9.0,11.0,59,0.00,,---,0.00,VWS V14.01,2013-06-04 23:04:00,
2013-06-04 16:09:00,74.0,59.7,29.87,WSW,248,4.0,11.0,61,0.00,,---,0.00,VWS V14.01,2013-06-04 23:09:00,
2013-06-04 16:14:00,73.8,59.1,29.88,West,261,4.0,11.0,60,0.00,,---,0.00,VWS V14.01,2013-06-04 23:14:00,
2013-06-04 16:15:00,73.8,59.5,29.87,West,262,4.0,11.0,61,0.00,,---,0.00,VWS V14.01,2013-06-04 23:15:00,
2013-06-04 16:19:00,73.7,59.4,29.87,West,261,6.0,10.0,61,0.00,,---,0.00,VWS V14.01,2013-06-04 23:19:00,
2013-06-04 16:24:00,73.5,59.2,29.87,SW,222,6.0,11.0,61,0.00,,---,0.00,VWS V14.01,2013-06-04 23:24:00,
2013-06-04 16:29:00,73.3,59.5,29.87,SW,232,6.0,11.0,62,0.00,,---,0.00,VWS V14.01,2013-06-04 23:29:00,
2013-06-04 16:30:00,73.2,59.4,29.88,SW,226,3.0,11.0,62,0.00,,---,0.00,VWS V14.01,2013-06-04 23:30:00,
2013-06-04 16:34:00,73.3,59.5,29.87,WSW,253,5.0,8.0,62,0.00,,---,0.00,VWS V14.01,2013-06-04 23:34:00,
2013-06-04 16:39:00,73.5,58.3,29.87,SW,227,7.0,10.0,59,0.00,,---,0.00,VWS V14.01,2013-06-04 23:39:00,
2013-06-04 16:44:00,73.5,59.2,29.87,WSW,240,3.0,11.0,61,0.00,,---,0.00,VWS V14.01,2013-06-04 23:44:00,
2013-06-04 16:45:00,73.5,59.2,29.87,West,267,4.0,11.0,61,0.00,,---,0.00,VWS V14.01,2013-06-04 23:45:00,
2013-06-04 16:49:00,73.7,59.4,29.87,NW,305,4.0,7.0,61,0.00,,---,0.00,VWS V14.01,2013-06-04 23:49:00,
2013-06-04 16:54:00,74.0,59.7,29.86,SW,232,7.0,9.0,61,0.00,,---,0.00,VWS V14.01,2013-06-04 23:54:00,
2013-06-04 16:59:00,73.6,59.3,29.87,SW,229,4.0,10.0,61,0.00,,---,0.00,VWS V14.01,2013-06-04 23:59:00,
2013-06-04 17:00:00,73.4,59.6,29.87,WSW,248,5.0,10.0,62,0.00,,---,0.00,VWS V14.01,2013-06-05 00:00:00,
2013-06-04 17:04:00,73.0,58.8,29.87,SW,234,5.0,9.0,61,0.00,,---,0.00,VWS V14.01,2013-06-05 00:04:00,
2013-06-04 17:09:00,72.4,59.5,29.87,SW,229,6.0,11.0,64,0.00,,---,0.00,VWS V14.01,2013-06-05 00:09:00,
2013-06-04 17:14:00,72.0,59.2,29.88,SW,228,7.0,11.0,64,0.00,,---,0.00,VWS V14.01,2013-06-05 00:14:00,
2013-06-04 17:15:00,71.9,59.5,29.87,SW,231,4.0,11.0,65,0.00,,---,0.00,VWS V14.01,2013-06-05 00:15:00,
2013-06-04 17:19:00,71.6,58.8,29.87,SW,232,3.0,9.0,64,0.00,,---,0.00,VWS V14.01,2013-06-05 00:19:00,
2013-06-04 17:24:00,71.3,59.4,29.88,WSW,250,2.0,9.0,66,0.00,,---,0.00,VWS V14.01,2013-06-05 00:24:00,
2013-06-04 17:29:00,71.2,58.8,29.88,West,259,2.0,9.0,65,0.00,,---,0.00,VWS V14.01,2013-06-05 00:29:00,
2013-06-04 17:30:00,71.2,59.3,29.87,SW,228,8.0,9.0,66,0.00,,---,0.00,VWS V14.01,2013-06-05 00:30:00,
2013-06-04 17:34:00,71.1,59.2,29.88,WSW,258,2.0,9.0,66,0.00,,---,0.00,VWS V14.01,2013-06-05 00:34:00,
2013-06-04 17:39:00,71.0,59.1,29.88,WSW,250,1.0,9.0,66,0.00,,---,0.00,VWS V14.01,2013-06-05 00:39:00,
2013-06-04 17:44:00,70.8,58.9,29.88,WSW,252,5.0,9.0,66,0.00,,---,0.00,VWS V14.01,2013-06-05 00:44:00,
2013-06-04 17:45:00,70.8,58.9,29.88,WSW,241,2.0,9.0,66,0.00,,---,0.00,VWS V14.01,2013-06-05 00:45:00,
2013-06-04 17:49:00,70.6,58.7,29.88,SW,233,4.0,7.0,66,0.00,,---,0.00,VWS V14.01,2013-06-05 00:49:00,
2013-06-04 17:54:00,70.3,58.8,29.88,SW,232,2.0,7.0,67,0.00,,---,0.00,VWS V14.01,2013-06-05 00:54:00,
2013-06-04 17:59:00,70.0,59.0,29.88,WSW,238,6.0,7.0,68,0.00,,---,0.00,VWS V14.01,2013-06-05 00:59:00,
2013-06-04 18:00:00,69.9,58.9,29.88,WSW,238,4.0,9.0,68,0.00,,---,0.00,VWS V14.01,2013-06-05 01:00:00,
2013-06-04 18:04:00,69.7,58.3,29.88,SW,221,0.0,6.0,67,0.00,,---,0.00,VWS V14.01,2013-06-05 01:04:00,
2013-06-04 18:09:00,69.6,58.6,29.88,SW,229,5.0,9.0,68,0.00,,---,0.00,VWS V14.01,2013-06-05 01:09:00,
2013-06-04 18:14:00,69.3,58.7,29.88,SW,229,4.0,10.0,69,0.00,,---,0.00,VWS V14.01,2013-06-05 01:14:00,
2013-06-04 18:15:00,69.2,58.6,29.89,WSW,238,5.0,10.0,69,0.00,,---,0.00,VWS V14.01,2013-06-05 01:15:00,
2013-06-04 18:19:00,69.0,58.4,29.88,West,262,5.0,6.0,69,0.00,,---,0.00,VWS V14.01,2013-06-05 01:19:00,
2013-06-04 18:24:00,68.6,58.0,29.89,West,265,4.0,8.0,69,0.00,,---,0.00,VWS V14.01,2013-06-05 01:24:00,
2013-06-04 18:29:00,68.3,57.8,29.89,SW,219,5.0,8.0,69,0.00,,---,0.00,VWS V14.01,2013-06-05 01:29:00,
2013-06-04 18:30:00,68.3,57.8,29.89,SW,223,3.0,8.0,69,0.00,,---,0.00,VWS V14.01,2013-06-05 01:30:00,
2013-06-04 18:34:00,68.1,58.0,29.89,SSW,194,3.0,6.0,70,0.00,,---,0.00,VWS V14.01,2013-06-05 01:34:00,
2013-06-04 18:39:00,68.0,57.9,29.90,WSW,250,2.0,7.0,70,0.00,,---,0.00,VWS V14.01,2013-06-05 01:39:00,
2013-06-04 18:44:00,67.9,57.8,29.90,WSW,247,3.0,7.0,70,0.00,,---,0.00,VWS V14.01,2013-06-05 01:44:00,
2013-06-04 18:45:00,67.9,57.8,29.90,WSW,244,0.0,7.0,70,0.00,,---,0.00,VWS V14.01,2013-06-05 01:45:00,
2013-06-04 18:49:00,67.7,57.6,29.90,WSW,239,1.0,5.0,70,0.00,,---,0.00,VWS V14.01,2013-06-05 01:49:00,
2013-06-04 18:54:00,67.6,57.1,29.90,SW,225,0.0,6.0,69,0.00,,---,0.00,VWS V14.01,2013-06-05 01:54:00,
2013-06-04 18:59:00,67.5,57.4,29.90,West,259,5.0,6.0,70,0.00,,---,0.00,VWS V14.01,2013-06-05 01:59:00,
2013-06-04 19:00:00,67.5,57.4,29.90,West,265,0.0,6.0,70,0.00,,---,0.00,VWS V14.01,2013-06-05 02:00:00,
2013-06-04 19:04:00,67.5,57.0,29.90,West,277,3.0,6.0,69,0.00,,---,0.00,VWS V14.01,2013-06-05 02:04:00,
2013-06-04 19:09:00,67.4,57.3,29.90,SW,235,5.0,6.0,70,0.00,,---,0.00,VWS V14.01,2013-06-05 02:09:00,
2013-06-04 19:14:00,67.4,57.3,29.90,WNW,296,1.0,6.0,70,0.00,,---,0.00,VWS V14.01,2013-06-05 02:14:00,
2013-06-04 19:15:00,67.4,57.3,29.90,NW,305,0.0,6.0,70,0.00,,---,0.00,VWS V14.01,2013-06-05 02:15:00,
2013-06-04 19:19:00,67.3,56.8,29.90,WNW,284,4.0,4.0,69,0.00,,---,0.00,VWS V14.01,2013-06-05 02:19:00,
2013-06-04 19:24:00,66.9,56.8,29.90,NW,311,2.0,5.0,70,0.00,,---,0.00,VWS V14.01,2013-06-05 02:24:00,
2013-06-04 19:29:00,66.5,57.2,29.90,WNW,289,1.0,5.0,72,0.00,,---,0.00,VWS V14.01,2013-06-05 02:29:00,
2013-06-04 19:30:00,66.4,57.1,29.90,WNW,288,2.0,7.0,72,0.00,,---,0.00,VWS V14.01,2013-06-05 02:30:00,
2013-06-04 19:34:00,65.7,56.4,29.90,WNW,298,3.0,4.0,72,0.00,,---,0.00,VWS V14.01,2013-06-05 02:34:00,
2013-06-04 19:39:00,64.9,56.4,29.91,WSW,254,4.0,4.0,74,0.00,,---,0.00,VWS V14.01,2013-06-05 02:39:00,
2013-06-04 19:44:00,64.4,57.0,29.91,NW,311,4.0,6.0,77,0.00,,---,0.00,VWS V14.01,2013-06-05 02:44:00,
2013-06-04 19:45:00,64.3,56.6,29.91,West,261,4.0,6.0,76,0.00,,---,0.00,VWS V14.01,2013-06-05 02:45:00,
2013-06-04 19:49:00,63.6,55.9,29.91,WNW,296,0.0,4.0,76,0.00,,---,0.00,VWS V14.01,2013-06-05 02:49:00,
2013-06-04 19:54:00,63.3,56.3,29.92,WSW,254,4.0,4.0,78,0.00,,---,0.00,VWS V14.01,2013-06-05 02:54:00,
2013-06-04 19:59:00,62.9,55.9,29.92,WSW,257,3.0,5.0,78,0.00,,---,0.00,VWS V14.01,2013-06-05 02:59:00,
2013-06-04 20:00:00,62.9,56.3,29.92,West,259,3.0,5.0,79,0.00,,---,0.00,VWS V14.01,2013-06-05 03:00:00,
2013-06-04 20:04:00,62.5,55.6,29.92,WNW,292,0.0,4.0,78,0.00,,---,0.00,VWS V14.01,2013-06-05 03:04:00,
2013-06-04 20:09:00,62.3,55.4,29.92,NW,321,0.0,4.0,78,0.00,,---,0.00,VWS V14.01,2013-06-05 03:09:00,
2013-06-04 20:14:00,62.2,55.6,29.92,WNW,303,0.0,4.0,79,0.00,,---,0.00,VWS V14.01,2013-06-05 03:14:00,
2013-06-04 20:15:00,62.2,55.6,29.92,North,360,0.0,4.0,79,0.00,,---,0.00,VWS V14.01,2013-06-05 03:15:00,
2013-06-04 20:19:00,62.1,55.5,29.92,NW,316,3.0,4.0,79,0.00,,---,0.00,VWS V14.01,2013-06-05 03:19:00,
2013-06-04 20:24:00,61.9,55.3,29.92,NW,312,1.0,5.0,79,0.00,,---,0.00,VWS V14.01,2013-06-05 03:24:00,
2013-06-04 20:29:00,61.8,55.2,29.92,North,351,2.0,5.0,79,0.00,,---,0.00,VWS V14.01,2013-06-05 03:29:00,
2013-06-04 20:30:00,61.7,55.1,29.92,North,355,0.0,5.0,79,0.00,,---,0.00,VWS V14.01,2013-06-05 03:30:00,
2013-06-04 20:34:00,61.6,55.0,29.92,NNW,341,0.0,2.0,79,0.00,,---,0.00,VWS V14.01,2013-06-05 03:34:00,
2013-06-04 20:39:00,61.5,55.3,29.92,NNW,340,0.0,2.0,80,0.00,,---,0.00,VWS V14.01,2013-06-05 03:39:00,
2013-06-04 20:44:00,61.3,55.1,29.92,WNW,289,1.0,3.0,80,0.00,,---,0.00,VWS V14.01,2013-06-05 03:44:00,
2013-06-04 20:45:00,61.2,55.0,29.92,West,265,3.0,4.0,80,0.00,,---,0.00,VWS V14.01,2013-06-05 03:45:00,
2013-06-04 20:49:00,60.9,54.7,29.92,WNW,288,0.0,5.0,80,0.00,,---,0.00,VWS V14.01,2013-06-05 03:49:00,
2013-06-04 20:54:00,60.7,54.8,29.92,WNW,300,0.0,5.0,81,0.00,,---,0.00,VWS V14.01,2013-06-05 03:54:00,
2013-06-04 20:59:00,60.5,54.7,29.92,WNW,303,0.0,5.0,81,0.00,,---,0.00,VWS V14.01,2013-06-05 03:59:00,
2013-06-04 21:00:00,60.5,54.7,29.92,WNW,303,0.0,5.0,81,0.00,,---,0.00,VWS V14.01,2013-06-05 04:00:00,
2013-06-04 21:01:00,60.4,54.5,29.92,WNW,302,0.0,0.0,81,0.00,,---,0.00,VWS V14.01,2013-06-05 04:01:00,
2013-06-04 21:02:00,60.4,54.9,29.92,WNW,294,2.0,3.0,82,0.00,,---,0.00,VWS V14.01,2013-06-05 04:02:00,
2013-06-04 21:07:00,60.2,54.7,29.92,NW,305,0.0,5.0,82,0.00,,---,0.00,VWS V14.01,2013-06-05 04:07:00,
2013-06-04 21:12:00,60.0,54.5,29.93,WNW,288,2.0,5.0,82,0.00,,---,0.00,VWS V14.01,2013-06-05 04:12:00,
2013-06-04 21:15:00,59.9,54.4,29.93,NW,319,0.0,6.0,82,0.00,,---,0.00,VWS V14.01,2013-06-05 04:15:00,
2013-06-04 21:17:00,59.8,54.6,29.93,NW,320,0.0,0.0,83,0.00,,---,0.00,VWS V14.01,2013-06-05 04:17:00,
2013-06-04 21:22:00,59.7,54.5,29.93,West,279,1.0,4.0,83,0.00,,---,0.00,VWS V14.01,2013-06-05 04:22:00,
2013-06-04 21:27:00,59.6,54.4,29.93,WNW,296,0.0,4.0,83,0.00,,---,0.00,VWS V14.01,2013-06-05 04:27:00,
2013-06-04 21:30:00,59.5,54.3,29.93,WNW,298,0.0,4.0,83,0.00,,---,0.00,VWS V14.01,2013-06-05 04:30:00,
2013-06-04 21:32:00,59.5,54.7,29.93,WNW,297,1.0,1.0,84,0.00,,---,0.00,VWS V14.01,2013-06-05 04:32:00,
2013-06-04 21:37:00,59.5,54.7,29.94,West,259,0.0,5.0,84,0.00,,---,0.00,VWS V14.01,2013-06-05 04:37:00,
2013-06-04 21:42:00,59.4,54.6,29.94,NW,309,4.0,5.0,84,0.00,,---,0.00,VWS V14.01,2013-06-05 04:42:00,
2013-06-04 21:45:00,59.4,54.6,29.94,NW,314,0.0,5.0,84,0.00,,---,0.00,VWS V14.01,2013-06-05 04:45:00,
2013-06-04 21:47:00,59.3,54.5,29.94,NW,314,0.0,0.0,84,0.00,,---,0.00,VWS V14.01,2013-06-05 04:47:00,
2013-06-04 21:52:00,59.4,54.6,29.94,WNW,293,0.0,0.0,84,0.00,,---,0.00,VWS V14.01,2013-06-05 04:52:00,
2013-06-04 21:57:00,59.5,54.7,29.94,WNW,294,0.0,0.0,84,0.00,,---,0.00,VWS V14.01,2013-06-05 04:57:00,
2013-06-04 22:00:00,59.5,54.7,29.94,West,279,0.0,1.0,84,0.00,,---,0.00,VWS V14.01,2013-06-05 05:00:00,
2013-06-04 22:02:00,59.5,54.7,29.94,West,269,2.0,3.0,84,0.00,,---,0.00,VWS V14.01,2013-06-05 05:02:00,
2013-06-04 22:07:00,59.5,54.7,29.94,West,274,0.0,3.0,84,0.00,,---,0.00,VWS V14.01,2013-06-05 05:07:00,
2013-06-04 22:12:00,59.4,54.6,29.94,WNW,291,0.0,3.0,84,0.00,,---,0.00,VWS V14.01,2013-06-05 05:12:00,
2013-06-04 22:15:00,59.4,54.9,29.94,WNW,290,0.0,3.0,85,0.00,,---,0.00,VWS V14.01,2013-06-05 05:15:00,
2013-06-04 22:17:00,59.4,54.9,29.94,WNW,290,0.0,0.0,85,0.00,,---,0.00,VWS V14.01,2013-06-05 05:17:00,
2013-06-04 22:22:00,59.3,54.8,29.94,West,280,0.0,3.0,85,0.00,,---,0.00,VWS V14.01,2013-06-05 05:22:00,
2013-06-04 22:27:00,59.2,54.7,29.94,WSW,248,2.0,4.0,85,0.00,,---,0.00,VWS V14.01,2013-06-05 05:27:00,
2013-06-04 22:30:00,59.1,54.6,29.94,WSW,248,0.0,4.0,85,0.00,,---,0.00,VWS V14.01,2013-06-05 05:30:00,
2013-06-04 22:32:00,59.1,54.6,29.95,WSW,250,0.0,0.0,85,0.00,,---,0.00,VWS V14.01,2013-06-05 05:32:00,
2013-06-04 22:37:00,59.0,54.5,29.95,WSW,249,0.0,2.0,85,0.00,,---,0.00,VWS V14.01,2013-06-05 05:37:00,
2013-06-04 22:42:00,59.0,54.5,29.95,WSW,251,0.0,2.0,85,0.00,,---,0.00,VWS V14.01,2013-06-05 05:42:00,
2013-06-04 22:45:00,59.0,54.5,29.95,WSW,251,2.0,2.0,85,0.00,,---,0.00,VWS V14.01,2013-06-05 05:45:00,
2013-06-04 22:47:00,59.0,54.5,29.95,WSW,252,0.0,3.0,85,0.00,,---,0.00,VWS V14.01,2013-06-05 05:47:00,
2013-06-04 22:52:00,59.0,54.8,29.95,West,260,0.0,4.0,86,0.00,,---,0.00,VWS V14.01,2013-06-05 05:52:00,
2013-06-04 22:57:00,59.0,54.8,29.95,WSW,242,1.0,5.0,86,0.00,,---,0.00,VWS V14.01,2013-06-05 05:57:00,
2013-06-04 23:00:00,59.0,54.8,29.94,WSW,242,0.0,5.0,86,0.00,,---,0.00,VWS V14.01,2013-06-05 06:00:00,
2013-06-04 23:02:00,59.0,54.8,29.94,WSW,250,0.0,2.0,86,0.00,,---,0.00,VWS V14.01,2013-06-05 06:02:00,
2013-06-04 23:07:00,59.0,54.8,29.94,WSW,249,0.0,3.0,86,0.00,,---,0.00,VWS V14.01,2013-06-05 06:07:00,
2013-06-04 23:12:00,59.0,54.8,29.93,WSW,257,0.0,3.0,86,0.00,,---,0.00,VWS V14.01,2013-06-05 06:12:00,
2013-06-04 23:15:00,59.0,54.8,29.93,WSW,256,2.0,3.0,86,0.00,,---,0.00,VWS V14.01,2013-06-05 06:15:00,
2013-06-04 23:17:00,59.0,54.8,29.93,WSW,257,2.0,2.0,86,0.00,,---,0.00,VWS V14.01,2013-06-05 06:17:00,
2013-06-04 23:22:00,59.0,54.8,29.93,WSW,251,0.0,4.0,86,0.00,,---,0.00,VWS V14.01,2013-06-05 06:22:00,
2013-06-04 23:27:00,59.0,54.8,29.93,WNW,286,0.0,5.0,86,0.00,,---,0.00,VWS V14.01,2013-06-05 06:27:00,
2013-06-04 23:30:00,59.0,55.1,29.93,WNW,286,1.0,5.0,87,0.00,,---,0.00,VWS V14.01,2013-06-05 06:30:00,
2013-06-04 23:32:00,59.0,55.1,29.93,West,261,2.0,4.0,87,0.00,,---,0.00,VWS V14.01,2013-06-05 06:32:00,
2013-06-04 23:37:00,59.0,54.8,29.93,WNW,303,0.0,4.0,86,0.00,,---,0.00,VWS V14.01,2013-06-05 06:37:00,
2013-06-04 23:42:00,59.0,54.8,29.93,WNW,299,0.0,4.0,86,0.00,,---,0.00,VWS V14.01,2013-06-05 06:42:00,
2013-06-04 23:45:00,59.0,54.8,29.93,WNW,294,1.0,4.0,86,0.00,,---,0.00,VWS V14.01,2013-06-05 06:45:00,
2013-06-04 23:47:00,59.0,55.1,29.93,WNW,294,0.0,1.0,87,0.00,,---,0.00,VWS V14.01,2013-06-05 06:47:00,
2013-06-04 23:52:00,59.0,54.8,29.93,WSW,254,2.0,5.0,86,0.00,,---,0.00,VWS V14.01,2013-06-05 06:52:00,
2013-06-04 23:57:00,59.0,54.8,29.93,WSW,254,0.0,5.0,86,0.00,,---,0.00,VWS V14.01,2013-06-05 06:57:00,